JBU209 KJFK-TNCM

Flight info

Callsign JBU209
Flight time 3h 28m
Altitude 33000
Route SHIPP Y492 SQUAD/M079F330 DCT DARUX L456 HANCY/N0470F330 L456 THANK DCT SLUGO
Aircraft A321/M-SDE3FGHIRWY/LB1

Departure

Time 2026-05-05 19:12
Airport John F. Kennedy International Airport (KJFK)

Arrival

Time 2026-05-05 22:40
Airport Princess Juliana International Airport (TNCM)
Time Latitude Longitude Altitude Speed Heading
2026-05-05 18:39 40.64623 -73.77353 17 ft 0 kts 191°
2026-05-05 19:00 40.64624 -73.77352 15 ft 1 kts 191°
2026-05-05 19:00 40.64647 -73.77347 6 ft 4 kts 191°
2026-05-05 19:01 40.64665 -73.77343 16 ft 4 kts 190°
2026-05-05 19:01 40.64686 -73.77338 17 ft 4 kts 180°
2026-05-05 19:01 40.64712 -73.77352 17 ft 2 kts 121°
2026-05-05 19:01 40.64720 -73.77371 16 ft 4 kts 121°
2026-05-05 19:02 40.64734 -73.77401 19 ft 4 kts 120°
2026-05-05 19:02 40.64748 -73.77432 17 ft 4 kts 120°
2026-05-05 19:02 40.64759 -73.77456 17 ft 4 kts 120°
2026-05-05 19:02 40.64762 -73.77463 19 ft 0 kts 120°
2026-05-05 19:06 40.64761 -73.77462 18 ft 0 kts 120°
2026-05-05 19:06 40.64759 -73.77457 18 ft 1 kts 120°
2026-05-05 19:06 40.64750 -73.77437 16 ft 3 kts 120°
2026-05-05 19:06 40.64741 -73.77410 16 ft 3 kts 102°
2026-05-05 19:07 40.64764 -73.77367 16 ft 10 kts 37°
2026-05-05 19:07 40.64825 -73.77319 16 ft 10 kts 30°
2026-05-05 19:07 40.64850 -73.77273 16 ft 6 kts 95°
2026-05-05 19:07 40.64835 -73.77229 16 ft 5 kts 118°
2026-05-05 19:08 40.64816 -73.77185 16 ft 6 kts 120°
2026-05-05 19:08 40.64800 -73.77137 16 ft 6 kts 96°
2026-05-05 19:08 40.64833 -73.77058 19 ft 13 kts 54°
2026-05-05 19:08 40.64886 -73.76962 19 ft 13 kts 54°
2026-05-05 19:09 40.64942 -73.76858 17 ft 15 kts 54°
2026-05-05 19:09 40.64989 -73.76753 16 ft 11 kts 87°
2026-05-05 19:09 40.64965 -73.76658 16 ft 11 kts 89°
2026-05-05 19:09 40.65016 -73.76591 16 ft 11 kts 31°
2026-05-05 19:10 40.65083 -73.76539 15 ft 11 kts 31°
2026-05-05 19:10 40.65089 -73.76451 17 ft 11 kts 118°
2026-05-05 19:10 40.65052 -73.76370 15 ft 9 kts 134°
2026-05-05 19:10 40.64998 -73.76375 15 ft 8 kts 205°
2026-05-05 19:11 40.64851 -73.76489 16 ft 55 kts 210°
2026-05-05 19:11 40.64342 -73.76887 16 ft 114 kts 210°
2026-05-05 19:11 40.63529 -73.77523 22 ft 160 kts 210°
2026-05-05 19:11 40.62538 -73.78301 581 ft 163 kts 208°
2026-05-05 19:12 40.61445 -73.78745 1129 ft 172 kts 172°
2026-05-05 19:12 40.60391 -73.77895 1539 ft 202 kts 133°
2026-05-05 19:12 40.59625 -73.76257 1988 ft 213 kts 128°
2026-05-05 19:12 40.58834 -73.74605 2604 ft 209 kts 129°
2026-05-05 19:13 40.58044 -73.73021 3074 ft 211 kts 130°
2026-05-05 19:13 40.57224 -73.71404 3477 ft 214 kts 131°
2026-05-05 19:13 40.56363 -73.69733 3648 ft 229 kts 131°
2026-05-05 19:13 40.55420 -73.67922 3740 ft 251 kts 131°
2026-05-05 19:14 40.54397 -73.65957 4001 ft 267 kts 130°
2026-05-05 19:14 40.53340 -73.63911 4525 ft 273 kts 130°
2026-05-05 19:14 40.52265 -73.61823 5093 ft 277 kts 130°
2026-05-05 19:14 40.51173 -73.59707 5661 ft 281 kts 130°
2026-05-05 19:15 40.50066 -73.57566 6229 ft 285 kts 131°
2026-05-05 19:15 40.48938 -73.55393 6743 ft 290 kts 131°
2026-05-05 19:15 40.47795 -73.53191 7256 ft 294 kts 131°
2026-05-05 19:15 40.46630 -73.50954 7782 ft 299 kts 131°
2026-05-05 19:16 40.45449 -73.48693 8318 ft 303 kts 131°
2026-05-05 19:16 40.44252 -73.46399 8849 ft 307 kts 131°
2026-05-05 19:16 40.43038 -73.44066 9386 ft 310 kts 131°
2026-05-05 19:16 40.41814 -73.41718 9904 ft 314 kts 131°
2026-05-05 19:17 40.40558 -73.39318 10211 ft 326 kts 131°
2026-05-05 19:17 40.39234 -73.36798 10342 ft 344 kts 131°
2026-05-05 19:17 40.37845 -73.34151 10467 ft 361 kts 130°
2026-05-05 19:17 40.36385 -73.31368 10573 ft 378 kts 130°
2026-05-05 19:18 40.34865 -73.28471 10710 ft 393 kts 130°
2026-05-05 19:18 40.33295 -73.25472 10967 ft 404 kts 129°
2026-05-05 19:18 40.31711 -73.22401 11412 ft 408 kts 128°
2026-05-05 19:18 40.30167 -73.19307 11892 ft 412 kts 127°
2026-05-05 19:19 40.28607 -73.16123 12388 ft 416 kts 127°
2026-05-05 19:19 40.27040 -73.12918 12879 ft 419 kts 127°
2026-05-05 19:19 40.25453 -73.09688 13368 ft 423 kts 127°
2026-05-05 19:19 40.23846 -73.06448 13853 ft 426 kts 127°
2026-05-05 19:20 40.22217 -73.03186 14312 ft 429 kts 127°
2026-05-05 19:20 40.20572 -72.99906 14805 ft 431 kts 127°
2026-05-05 19:20 40.18940 -72.96658 15303 ft 433 kts 127°
2026-05-05 19:20 40.17281 -72.93357 15785 ft 435 kts 127°
2026-05-05 19:21 40.15616 -72.90052 16302 ft 437 kts 126°
2026-05-05 19:21 40.13944 -72.86733 16790 ft 438 kts 126°
2026-05-05 19:21 40.12262 -72.83393 17264 ft 440 kts 126°
2026-05-05 19:21 40.10576 -72.80044 17728 ft 442 kts 126°
2026-05-05 19:22 40.08918 -72.76643 18183 ft 444 kts 124°
2026-05-05 19:22 40.07317 -72.73166 18563 ft 447 kts 123°
2026-05-05 19:22 40.05755 -72.69653 18930 ft 449 kts 122°
2026-05-05 19:22 40.04197 -72.66102 19294 ft 451 kts 122°
2026-05-05 19:23 40.02649 -72.62585 19648 ft 453 kts 122°
2026-05-05 19:23 40.01068 -72.59030 20014 ft 454 kts 123°
2026-05-05 19:23 39.99460 -72.55467 20388 ft 456 kts 123°
2026-05-05 19:23 39.97836 -72.51911 20742 ft 458 kts 123°
2026-05-05 19:24 39.96200 -72.48335 21098 ft 459 kts 123°
2026-05-05 19:24 39.94581 -72.44732 21443 ft 461 kts 123°
2026-05-05 19:24 39.92981 -72.41099 21789 ft 463 kts 122°
2026-05-05 19:24 39.91387 -72.37447 22124 ft 465 kts 122°
2026-05-05 19:25 39.89787 -72.33772 22473 ft 466 kts 122°
2026-05-05 19:25 39.88177 -72.30085 22810 ft 468 kts 123°
2026-05-05 19:25 39.86559 -72.26402 23142 ft 470 kts 123°
2026-05-05 19:25 39.84928 -72.22705 23458 ft 471 kts 123°
2026-05-05 19:26 39.83289 -72.19004 23752 ft 473 kts 123°
2026-05-05 19:26 39.81665 -72.15346 23998 ft 474 kts 123°
2026-05-05 19:26 39.80011 -72.11619 24247 ft 476 kts 123°
2026-05-05 19:26 39.78346 -72.07871 24497 ft 478 kts 123°
2026-05-05 19:27 39.76681 -72.04128 24746 ft 480 kts 123°
2026-05-05 19:27 39.75000 -72.00356 24987 ft 481 kts 123°
2026-05-05 19:27 39.73307 -71.96584 25235 ft 483 kts 123°
2026-05-05 19:27 39.71586 -71.92825 25479 ft 485 kts 124°
2026-05-05 19:28 39.69838 -71.89070 25722 ft 487 kts 124°
2026-05-05 19:28 39.68095 -71.85359 25960 ft 488 kts 124°
2026-05-05 19:28 39.66322 -71.81598 26318 ft 487 kts 124°
2026-05-05 19:28 39.64554 -71.77845 26668 ft 487 kts 124°
2026-05-05 19:29 39.62792 -71.74085 27006 ft 487 kts 124°
2026-05-05 19:29 39.61034 -71.70325 27336 ft 487 kts 123°
2026-05-05 19:29 39.59282 -71.66571 27656 ft 486 kts 123°
2026-05-05 19:29 39.57547 -71.62860 27973 ft 486 kts 123°
2026-05-05 19:30 39.55788 -71.59108 28301 ft 486 kts 123°
2026-05-05 19:30 39.54029 -71.55364 28620 ft 486 kts 123°
2026-05-05 19:30 39.52270 -71.51622 28940 ft 486 kts 123°
2026-05-05 19:30 39.50509 -71.47879 29254 ft 486 kts 123°
2026-05-05 19:31 39.48743 -71.44138 29569 ft 486 kts 123°
2026-05-05 19:31 39.46979 -71.40414 29885 ft 486 kts 123°
2026-05-05 19:31 39.45097 -71.36792 30180 ft 483 kts 131°
2026-05-05 19:31 39.42850 -71.33589 30432 ft 479 kts 140°
2026-05-05 19:32 39.40269 -71.30871 30708 ft 475 kts 149°
2026-05-05 19:32 39.37443 -71.28703 30978 ft 470 kts 158°
2026-05-05 19:32 39.34490 -71.27066 31233 ft 467 kts 161°
2026-05-05 19:32 39.31482 -71.25505 31501 ft 466 kts 161°
2026-05-05 19:33 39.28473 -71.23943 31770 ft 465 kts 161°
2026-05-05 19:33 39.25472 -71.22383 32049 ft 464 kts 161°
2026-05-05 19:33 39.22480 -71.20824 32304 ft 464 kts 161°
2026-05-05 19:33 39.19487 -71.19265 32548 ft 463 kts 161°
2026-05-05 19:34 39.16500 -71.17715 32807 ft 462 kts 161°
2026-05-05 19:34 39.13516 -71.16168 33031 ft 462 kts 161°
2026-05-05 19:35 39.04510 -71.11510 33106 ft 466 kts 161°
2026-05-05 19:35 38.98484 -71.08395 33106 ft 466 kts 161°
2026-05-05 19:36 38.92462 -71.05289 33116 ft 466 kts 161°
2026-05-05 19:36 38.86471 -71.02214 33115 ft 466 kts 161°
2026-05-05 19:37 38.80439 -70.99119 33122 ft 466 kts 161°
2026-05-05 19:37 38.74401 -70.96027 33128 ft 467 kts 161°
2026-05-05 19:38 38.68369 -70.92938 33134 ft 467 kts 161°
2026-05-05 19:38 38.62363 -70.89866 33162 ft 467 kts 161°
2026-05-05 19:39 38.56324 -70.86784 33147 ft 467 kts 161°
2026-05-05 19:39 38.50282 -70.83713 33157 ft 467 kts 161°
2026-05-05 19:40 38.44243 -70.80652 33156 ft 467 kts 162°
2026-05-05 19:40 38.38206 -70.77591 33163 ft 467 kts 162°
2026-05-05 19:41 38.32166 -70.74533 33169 ft 466 kts 162°
2026-05-05 19:41 38.26136 -70.71484 33159 ft 466 kts 162°
2026-05-05 19:42 38.20093 -70.68443 33168 ft 466 kts 162°
2026-05-05 19:42 38.14102 -70.65435 33166 ft 466 kts 162°
2026-05-05 19:43 38.08071 -70.62405 33172 ft 466 kts 162°
2026-05-05 19:43 38.02052 -70.59380 33172 ft 465 kts 162°
2026-05-05 19:44 37.96077 -70.56162 33182 ft 467 kts 158°
2026-05-05 19:44 37.90265 -70.52441 33181 ft 468 kts 156°
2026-05-05 19:45 37.84489 -70.48620 33193 ft 468 kts 156°
2026-05-05 19:45 37.78680 -70.44914 33195 ft 467 kts 158°
2026-05-05 19:46 37.72878 -70.41319 33194 ft 467 kts 158°
2026-05-05 19:46 37.67042 -70.37707 33197 ft 467 kts 158°
2026-05-05 19:47 37.61211 -70.34074 33197 ft 467 kts 158°
2026-05-05 19:47 37.55389 -70.30448 33198 ft 466 kts 158°
2026-05-05 19:48 37.49571 -70.26823 33204 ft 466 kts 158°
2026-05-05 19:48 37.43753 -70.23211 33207 ft 465 kts 158°
2026-05-05 19:49 37.38923 -70.20223 33208 ft 465 kts 158°
2026-05-05 19:49 37.32170 -70.16055 33200 ft 464 kts 158°
2026-05-05 19:50 37.27349 -70.13077 33207 ft 464 kts 158°
2026-05-05 19:50 37.21550 -70.09502 33215 ft 464 kts 158°
2026-05-05 19:51 37.15754 -70.05940 33219 ft 464 kts 158°
2026-05-05 19:51 37.09960 -70.02381 33215 ft 463 kts 158°
2026-05-05 19:52 37.04167 -69.98815 33226 ft 463 kts 158°
2026-05-05 19:52 36.98393 -69.95290 33228 ft 462 kts 158°
2026-05-05 19:53 36.92620 -69.91777 33227 ft 461 kts 158°
2026-05-05 19:53 36.86856 -69.88264 33228 ft 460 kts 158°
2026-05-05 19:54 36.81132 -69.84779 33227 ft 460 kts 158°
2026-05-05 19:54 36.75380 -69.81272 33228 ft 459 kts 158°
2026-05-05 19:55 36.69634 -69.77783 33232 ft 459 kts 158°
2026-05-05 19:55 36.63902 -69.74317 33234 ft 458 kts 158°
2026-05-05 19:56 36.58165 -69.70851 33239 ft 457 kts 158°
2026-05-05 19:56 36.52439 -69.67392 33240 ft 457 kts 158°
2026-05-05 19:57 36.46740 -69.63958 33240 ft 456 kts 158°
2026-05-05 19:57 36.41013 -69.60516 33239 ft 456 kts 158°
2026-05-05 19:58 36.35335 -69.57104 33241 ft 455 kts 158°
2026-05-05 19:58 36.29635 -69.53671 33242 ft 455 kts 158°
2026-05-05 19:59 36.23931 -69.50256 33241 ft 455 kts 158°
2026-05-05 19:59 36.18222 -69.46848 33248 ft 455 kts 159°
2026-05-05 20:00 36.12312 -69.44509 33244 ft 447 kts 172°
2026-05-05 20:00 36.06221 -69.42881 33241 ft 447 kts 171°
2026-05-05 20:01 36.00136 -69.41234 33247 ft 447 kts 171°
2026-05-05 20:01 35.94052 -69.39589 33248 ft 447 kts 171°
2026-05-05 20:02 35.88003 -69.37965 33248 ft 447 kts 171°
2026-05-05 20:02 35.81922 -69.36340 33249 ft 447 kts 171°
2026-05-05 20:03 35.75841 -69.34712 33248 ft 447 kts 171°
2026-05-05 20:03 35.69764 -69.33078 33246 ft 447 kts 171°
2026-05-05 20:04 35.63690 -69.31450 33250 ft 447 kts 171°
2026-05-05 20:04 35.57616 -69.29831 33249 ft 447 kts 171°
2026-05-05 20:05 35.51546 -69.28215 33246 ft 446 kts 171°
2026-05-05 20:05 35.45477 -69.26603 33248 ft 446 kts 171°
2026-05-05 20:06 35.39408 -69.24989 33248 ft 446 kts 171°
2026-05-05 20:06 35.33341 -69.23366 33248 ft 446 kts 171°
2026-05-05 20:07 35.27268 -69.21762 33243 ft 446 kts 171°
2026-05-05 20:07 35.21198 -69.20167 33241 ft 446 kts 171°
2026-05-05 20:08 35.15128 -69.18572 33238 ft 446 kts 171°
2026-05-05 20:08 35.09094 -69.16975 33242 ft 446 kts 171°
2026-05-05 20:09 35.03017 -69.15375 33240 ft 446 kts 171°
2026-05-05 20:09 34.96934 -69.13786 33244 ft 447 kts 171°
2026-05-05 20:10 34.90855 -69.12181 33241 ft 447 kts 171°
2026-05-05 20:10 34.84780 -69.10577 33237 ft 446 kts 171°
2026-05-05 20:11 34.78707 -69.08988 33239 ft 446 kts 171°
2026-05-05 20:11 34.72660 -69.07426 33239 ft 446 kts 171°
2026-05-05 20:12 34.66596 -69.05855 33238 ft 446 kts 171°
2026-05-05 20:12 34.60531 -69.04262 33234 ft 445 kts 171°
2026-05-05 20:13 34.54466 -69.02682 33237 ft 445 kts 171°
2026-05-05 20:13 34.48412 -69.01115 33240 ft 445 kts 171°
2026-05-05 20:14 34.42357 -68.99552 33239 ft 445 kts 171°
2026-05-05 20:14 34.36338 -68.97985 33241 ft 445 kts 171°
2026-05-05 20:15 34.30289 -68.96421 33240 ft 444 kts 171°
2026-05-05 20:15 34.24242 -68.94863 33237 ft 444 kts 171°
2026-05-05 20:16 34.18191 -68.93306 33229 ft 444 kts 171°
2026-05-05 20:16 34.12143 -68.91741 33231 ft 445 kts 171°
2026-05-05 20:17 34.06094 -68.90183 33232 ft 445 kts 171°
2026-05-05 20:17 34.00033 -68.88628 33227 ft 445 kts 171°
2026-05-05 20:18 33.93979 -68.87081 33230 ft 445 kts 172°
2026-05-05 20:18 33.87917 -68.85534 33229 ft 445 kts 172°
2026-05-05 20:19 33.81862 -68.83990 33231 ft 445 kts 172°
2026-05-05 20:19 33.75800 -68.82444 33229 ft 445 kts 172°
2026-05-05 20:20 33.69748 -68.80899 33234 ft 444 kts 172°
2026-05-05 20:20 33.63703 -68.79353 33240 ft 444 kts 172°
2026-05-05 20:21 33.57665 -68.77826 33235 ft 443 kts 173°
2026-05-05 20:21 33.51683 -68.76316 33236 ft 442 kts 173°
2026-05-05 20:22 33.45668 -68.74791 33228 ft 441 kts 173°
2026-05-05 20:22 33.39655 -68.73278 33232 ft 441 kts 173°
2026-05-05 20:23 33.33657 -68.71761 33225 ft 440 kts 173°
2026-05-05 20:23 33.27670 -68.70248 33228 ft 439 kts 174°
2026-05-05 20:24 33.21723 -68.68757 33223 ft 439 kts 174°
2026-05-05 20:24 33.15751 -68.67255 33223 ft 438 kts 174°
2026-05-05 20:25 33.09794 -68.65758 33213 ft 437 kts 174°
2026-05-05 20:25 33.03848 -68.64269 33212 ft 436 kts 174°
2026-05-05 20:26 32.97909 -68.62783 33212 ft 435 kts 174°
2026-05-05 20:26 32.91983 -68.61300 33212 ft 435 kts 174°
2026-05-05 20:27 32.86062 -68.59819 33211 ft 435 kts 174°
2026-05-05 20:27 32.80136 -68.58329 33208 ft 434 kts 175°
2026-05-05 20:28 32.74215 -68.56856 33205 ft 434 kts 175°
2026-05-05 20:28 32.68308 -68.55391 33199 ft 434 kts 175°
2026-05-05 20:29 32.62430 -68.53934 33200 ft 434 kts 175°
2026-05-05 20:29 32.56525 -68.52467 33199 ft 434 kts 175°
2026-05-05 20:30 32.50612 -68.51004 33200 ft 434 kts 175°
2026-05-05 20:30 32.44709 -68.49541 33195 ft 433 kts 175°
2026-05-05 20:31 32.38796 -68.48081 33197 ft 433 kts 175°
2026-05-05 20:31 32.32894 -68.46629 33193 ft 433 kts 175°
2026-05-05 20:32 32.26994 -68.45184 33184 ft 433 kts 175°
2026-05-05 20:32 32.21102 -68.43735 33183 ft 432 kts 175°
2026-05-05 20:33 32.15212 -68.42285 33183 ft 432 kts 175°
2026-05-05 20:33 32.09317 -68.40829 33180 ft 432 kts 175°
2026-05-05 20:34 32.03462 -68.39396 33178 ft 432 kts 175°
2026-05-05 20:34 31.97568 -68.37952 33183 ft 433 kts 175°
2026-05-05 20:35 31.91674 -68.36509 33187 ft 432 kts 175°
2026-05-05 20:35 31.85772 -68.35063 33184 ft 432 kts 175°
2026-05-05 20:36 31.79888 -68.33627 33185 ft 432 kts 175°
2026-05-05 20:36 31.74990 -68.32444 33183 ft 431 kts 175°
2026-05-05 20:37 31.68160 -68.30791 33180 ft 431 kts 175°
2026-05-05 20:37 31.63238 -68.29588 33177 ft 431 kts 175°
2026-05-05 20:38 31.57370 -68.28156 33176 ft 431 kts 175°
2026-05-05 20:38 31.51534 -68.26740 33169 ft 431 kts 176°
2026-05-05 20:39 31.45659 -68.25326 33169 ft 431 kts 176°
2026-05-05 20:39 31.39786 -68.23910 33170 ft 431 kts 176°
2026-05-05 20:40 31.33911 -68.22490 33167 ft 431 kts 176°
2026-05-05 20:40 31.28036 -68.21076 33167 ft 431 kts 176°
2026-05-05 20:41 31.22155 -68.19657 33164 ft 431 kts 176°
2026-05-05 20:41 31.16267 -68.18234 33161 ft 431 kts 176°
2026-05-05 20:42 31.10421 -68.16838 33155 ft 431 kts 176°
2026-05-05 20:42 31.04533 -68.15428 33154 ft 431 kts 176°
2026-05-05 20:43 30.98646 -68.14019 33160 ft 432 kts 176°
2026-05-05 20:43 30.92767 -68.12611 33163 ft 431 kts 176°
2026-05-05 20:44 30.86885 -68.11203 33161 ft 431 kts 176°
2026-05-05 20:44 30.81007 -68.09805 33160 ft 431 kts 176°
2026-05-05 20:45 30.72191 -68.07712 33158 ft 431 kts 176°
2026-05-05 20:45 30.66322 -68.06302 33152 ft 431 kts 177°
2026-05-05 20:46 30.60452 -68.04899 33157 ft 430 kts 177°
2026-05-05 20:46 30.54620 -68.03523 33151 ft 430 kts 177°
2026-05-05 20:47 30.48753 -68.02143 33155 ft 429 kts 177°
2026-05-05 20:47 30.42905 -68.00756 33155 ft 429 kts 177°
2026-05-05 20:48 30.37061 -67.99369 33152 ft 429 kts 177°
2026-05-05 20:48 30.31212 -67.97988 33143 ft 428 kts 178°
2026-05-05 20:49 30.25370 -67.96610 33140 ft 428 kts 178°
2026-05-05 20:49 30.19571 -67.95240 33135 ft 427 kts 178°
2026-05-05 20:50 30.13741 -67.93881 33132 ft 427 kts 178°
2026-05-05 20:50 30.07903 -67.92513 33127 ft 428 kts 177°
2026-05-05 20:51 30.02067 -67.91136 33125 ft 428 kts 177°
2026-05-05 20:51 29.96232 -67.89765 33125 ft 428 kts 177°
2026-05-05 20:52 29.90389 -67.88393 33128 ft 428 kts 177°
2026-05-05 20:52 29.84592 -67.87040 33133 ft 428 kts 177°
2026-05-05 20:53 29.78751 -67.85679 33131 ft 428 kts 177°
2026-05-05 20:53 29.72904 -67.84323 33124 ft 428 kts 178°
2026-05-05 20:54 29.67053 -67.82965 33127 ft 428 kts 178°
2026-05-05 20:54 29.61205 -67.81608 33125 ft 428 kts 178°
2026-05-05 20:55 29.55386 -67.80249 33127 ft 429 kts 177°
2026-05-05 20:55 29.49541 -67.78880 33127 ft 429 kts 178°
2026-05-05 20:56 29.43693 -67.77530 33128 ft 429 kts 178°
2026-05-05 20:56 29.37845 -67.76177 33123 ft 429 kts 178°
2026-05-05 20:57 29.31988 -67.74813 33122 ft 429 kts 177°
2026-05-05 20:57 29.26137 -67.73455 33120 ft 429 kts 177°
2026-05-05 20:58 29.20286 -67.72108 33124 ft 429 kts 177°
2026-05-05 20:58 29.14431 -67.70768 33121 ft 429 kts 177°
2026-05-05 20:59 29.08608 -67.69427 33116 ft 429 kts 177°
2026-05-05 20:59 29.02744 -67.68077 33119 ft 429 kts 177°
2026-05-05 21:00 28.96873 -67.66720 33111 ft 430 kts 177°
2026-05-05 21:00 28.91000 -67.65372 33103 ft 430 kts 177°
2026-05-05 21:01 28.85124 -67.64028 33097 ft 431 kts 177°
2026-05-05 21:01 28.79268 -67.62694 33094 ft 432 kts 177°
2026-05-05 21:02 28.73355 -67.61348 33092 ft 433 kts 177°
2026-05-05 21:02 28.67431 -67.59998 33092 ft 434 kts 177°
2026-05-05 21:03 28.61494 -67.58639 33092 ft 435 kts 177°
2026-05-05 21:03 28.55564 -67.57283 33095 ft 435 kts 177°
2026-05-05 21:04 28.49615 -67.55920 33104 ft 436 kts 176°
2026-05-05 21:04 28.43688 -67.54571 33105 ft 437 kts 176°
2026-05-05 21:05 28.37731 -67.53216 33105 ft 437 kts 176°
2026-05-05 21:05 28.31767 -67.51867 33106 ft 437 kts 176°
2026-05-05 21:06 28.25799 -67.50518 33100 ft 438 kts 176°
2026-05-05 21:06 28.19820 -67.49165 33104 ft 438 kts 176°
2026-05-05 21:07 28.13845 -67.47820 33098 ft 438 kts 176°
2026-05-05 21:07 28.07870 -67.46470 33094 ft 438 kts 176°
2026-05-05 21:08 28.01881 -67.45115 33100 ft 438 kts 176°
2026-05-05 21:08 27.95897 -67.43762 33098 ft 439 kts 176°
2026-05-05 21:09 27.89901 -67.42421 33104 ft 439 kts 176°
2026-05-05 21:09 27.83940 -67.41078 33102 ft 439 kts 176°
2026-05-05 21:10 27.77938 -67.39730 33098 ft 439 kts 176°
2026-05-05 21:10 27.71936 -67.38379 33092 ft 440 kts 176°
2026-05-05 21:11 27.65931 -67.37034 33090 ft 440 kts 176°
2026-05-05 21:11 27.59921 -67.35693 33089 ft 440 kts 176°
2026-05-05 21:12 27.53904 -67.34357 33085 ft 440 kts 176°
2026-05-05 21:12 27.47891 -67.33016 33085 ft 441 kts 176°
2026-05-05 21:13 27.41914 -67.31671 33079 ft 441 kts 176°
2026-05-05 21:13 27.35882 -67.30328 33077 ft 442 kts 176°
2026-05-05 21:14 27.29847 -67.28982 33078 ft 442 kts 176°
2026-05-05 21:14 27.23805 -67.27643 33074 ft 443 kts 176°
2026-05-05 21:15 27.17753 -67.26299 33075 ft 443 kts 175°
2026-05-05 21:15 27.11704 -67.24956 33074 ft 444 kts 175°
2026-05-05 21:16 27.05640 -67.23604 33072 ft 444 kts 175°
2026-05-05 21:16 26.99609 -67.22270 33071 ft 444 kts 175°
2026-05-05 21:17 26.93527 -67.20943 33068 ft 445 kts 175°
2026-05-05 21:17 26.87430 -67.19596 33069 ft 446 kts 175°
2026-05-05 21:18 26.81327 -67.18245 33068 ft 447 kts 175°
2026-05-05 21:18 26.75221 -67.16902 33070 ft 448 kts 175°
2026-05-05 21:19 26.69130 -67.15562 33070 ft 449 kts 175°
2026-05-05 21:19 26.62995 -67.14209 33076 ft 449 kts 175°
2026-05-05 21:20 26.56851 -67.12861 33074 ft 450 kts 175°
2026-05-05 21:20 26.50710 -67.11511 33076 ft 450 kts 175°
2026-05-05 21:21 26.44555 -67.10159 33072 ft 451 kts 175°
2026-05-05 21:21 26.38394 -67.08820 33076 ft 451 kts 175°
2026-05-05 21:22 26.32258 -67.07477 33074 ft 452 kts 174°
2026-05-05 21:22 26.26084 -67.06121 33078 ft 452 kts 175°
2026-05-05 21:23 26.19893 -67.04771 33083 ft 453 kts 174°
2026-05-05 21:23 26.13745 -67.03435 33081 ft 453 kts 174°
2026-05-05 21:24 26.07545 -67.02096 33084 ft 454 kts 174°
2026-05-05 21:24 26.01355 -67.00747 33082 ft 454 kts 174°
2026-05-05 21:25 25.96192 -66.99616 33085 ft 454 kts 174°
2026-05-05 21:25 25.89983 -66.98265 33085 ft 455 kts 174°
2026-05-05 21:26 25.83771 -66.96920 33086 ft 455 kts 174°
2026-05-05 21:26 25.77545 -66.95574 33094 ft 455 kts 174°
2026-05-05 21:27 25.71320 -66.94231 33094 ft 455 kts 174°
2026-05-05 21:27 25.65100 -66.92883 33099 ft 455 kts 174°
2026-05-05 21:28 25.58882 -66.91537 33100 ft 455 kts 174°
2026-05-05 21:28 25.52663 -66.90202 33102 ft 455 kts 174°
2026-05-05 21:29 25.46446 -66.88870 33104 ft 455 kts 174°
2026-05-05 21:29 25.40259 -66.87538 33103 ft 455 kts 174°
2026-05-05 21:30 25.34034 -66.86196 33101 ft 456 kts 174°
2026-05-05 21:30 25.27812 -66.84856 33102 ft 456 kts 174°
2026-05-05 21:31 25.21582 -66.83514 33095 ft 456 kts 174°
2026-05-05 21:31 25.15339 -66.82179 33103 ft 457 kts 174°
2026-05-05 21:32 25.09088 -66.80854 33104 ft 457 kts 174°
2026-05-05 21:32 25.02867 -66.79522 33096 ft 458 kts 173°
2026-05-05 21:33 24.96604 -66.78175 33096 ft 459 kts 173°
2026-05-05 21:33 24.90331 -66.76835 33092 ft 460 kts 173°
2026-05-05 21:34 24.84039 -66.75497 33087 ft 460 kts 173°
2026-05-05 21:34 24.77741 -66.74156 33100 ft 461 kts 173°
2026-05-05 21:35 24.71436 -66.72814 33098 ft 462 kts 173°
2026-05-05 21:35 24.65112 -66.71474 33102 ft 463 kts 173°
2026-05-05 21:36 24.58826 -66.70133 33106 ft 463 kts 173°
2026-05-05 21:36 24.52482 -66.68785 33106 ft 464 kts 173°
2026-05-05 21:37 24.46138 -66.67446 33103 ft 464 kts 173°
2026-05-05 21:37 24.39789 -66.66102 33101 ft 464 kts 173°
2026-05-05 21:38 24.33440 -66.64757 33105 ft 465 kts 173°
2026-05-05 21:38 24.27127 -66.63425 33109 ft 465 kts 173°
2026-05-05 21:39 24.20763 -66.62077 33108 ft 465 kts 174°
2026-05-05 21:39 24.14402 -66.60732 33111 ft 465 kts 174°
2026-05-05 21:40 24.08042 -66.59397 33111 ft 465 kts 174°
2026-05-05 21:40 24.01718 -66.58070 33116 ft 465 kts 174°
2026-05-05 21:41 23.95350 -66.56739 33117 ft 465 kts 173°
2026-05-05 21:41 23.88993 -66.55406 33116 ft 465 kts 173°
2026-05-05 21:42 23.82670 -66.54079 33116 ft 465 kts 173°
2026-05-05 21:42 23.76302 -66.52735 33120 ft 465 kts 173°
2026-05-05 21:43 23.69952 -66.51406 33119 ft 465 kts 173°
2026-05-05 21:43 23.63637 -66.50099 33113 ft 464 kts 173°
2026-05-05 21:44 23.57284 -66.48776 33116 ft 465 kts 173°
2026-05-05 21:44 23.50933 -66.47445 33116 ft 465 kts 173°
2026-05-05 21:45 23.44580 -66.46109 33115 ft 465 kts 173°
2026-05-05 21:45 23.38231 -66.44782 33112 ft 465 kts 173°
2026-05-05 21:46 23.31863 -66.43467 33114 ft 465 kts 173°
2026-05-05 21:46 23.25506 -66.42160 33113 ft 465 kts 173°
2026-05-05 21:47 23.19189 -66.40840 33113 ft 465 kts 173°
2026-05-05 21:47 23.12824 -66.39502 33113 ft 465 kts 173°
2026-05-05 21:48 23.06459 -66.38183 33115 ft 465 kts 173°
2026-05-05 21:48 23.00096 -66.36874 33118 ft 465 kts 173°
2026-05-05 21:49 22.93784 -66.35565 33118 ft 465 kts 173°
2026-05-05 21:49 22.87423 -66.34256 33119 ft 465 kts 173°
2026-05-05 21:50 22.81063 -66.32947 33120 ft 464 kts 173°
2026-05-05 21:50 22.74715 -66.31635 33116 ft 464 kts 173°
2026-05-05 21:51 22.68355 -66.30324 33115 ft 464 kts 173°
2026-05-05 21:51 22.62041 -66.29024 33113 ft 464 kts 173°
2026-05-05 21:52 22.52531 -66.27071 33118 ft 464 kts 173°
2026-05-05 21:53 22.46188 -66.25770 33116 ft 463 kts 173°
2026-05-05 21:53 22.39852 -66.24466 33117 ft 463 kts 173°
2026-05-05 21:54 22.33511 -66.23164 33114 ft 463 kts 173°
2026-05-05 21:54 22.27173 -66.21872 33114 ft 463 kts 173°
2026-05-05 21:55 22.20879 -66.20581 33112 ft 463 kts 173°
2026-05-05 21:55 22.14537 -66.19284 33114 ft 463 kts 173°
2026-05-05 21:56 22.08203 -66.17991 33113 ft 463 kts 173°
2026-05-05 21:56 22.01871 -66.16696 33113 ft 463 kts 173°
2026-05-05 21:57 21.95536 -66.15403 33114 ft 463 kts 173°
2026-05-05 21:57 21.89240 -66.14115 33127 ft 463 kts 173°
2026-05-05 21:58 21.82908 -66.12832 33119 ft 462 kts 173°
2026-05-05 21:58 21.76582 -66.11547 33115 ft 462 kts 173°
2026-05-05 21:59 21.70264 -66.10260 33109 ft 462 kts 173°
2026-05-05 21:59 21.63938 -66.08985 33109 ft 462 kts 173°
2026-05-05 22:00 21.57657 -66.07715 33109 ft 461 kts 173°
2026-05-05 22:00 21.51350 -66.06427 33113 ft 461 kts 173°
2026-05-05 22:01 21.45208 -66.04302 33106 ft 469 kts 156°
2026-05-05 22:01 21.39758 -66.00343 33116 ft 475 kts 147°
2026-05-05 22:02 21.34484 -65.96130 33118 ft 475 kts 147°
2026-05-05 22:02 21.29169 -65.91915 33105 ft 474 kts 147°
2026-05-05 22:03 21.23856 -65.87708 33110 ft 474 kts 147°
2026-05-05 22:03 21.18547 -65.83491 33108 ft 474 kts 147°
2026-05-05 22:04 21.13277 -65.79313 33111 ft 474 kts 147°
2026-05-05 22:04 21.07941 -65.75093 33113 ft 474 kts 147°
2026-05-05 22:05 21.02673 -65.70922 33118 ft 473 kts 147°
2026-05-05 22:05 20.97377 -65.66730 33122 ft 473 kts 147°
2026-05-05 22:06 20.92077 -65.62545 33117 ft 472 kts 147°
2026-05-05 22:06 20.86790 -65.58368 33112 ft 472 kts 147°
2026-05-05 22:07 20.81539 -65.54223 33115 ft 472 kts 147°
2026-05-05 22:07 20.76254 -65.50060 33113 ft 472 kts 147°
2026-05-05 22:08 20.70967 -65.45895 33117 ft 472 kts 147°
2026-05-05 22:08 20.65685 -65.41734 33113 ft 471 kts 147°
2026-05-05 22:09 20.60403 -65.37589 33113 ft 471 kts 147°
2026-05-05 22:09 20.55122 -65.33445 33111 ft 471 kts 147°
2026-05-05 22:10 20.49832 -65.29299 33107 ft 471 kts 147°
2026-05-05 22:10 20.44551 -65.25160 33108 ft 471 kts 147°
2026-05-05 22:11 20.39299 -65.21037 33107 ft 471 kts 147°
2026-05-05 22:11 20.34009 -65.16889 33105 ft 472 kts 147°
2026-05-05 22:12 20.28716 -65.12752 33106 ft 472 kts 147°
2026-05-05 22:12 20.23408 -65.08625 33111 ft 472 kts 147°
2026-05-05 22:13 20.18113 -65.04499 33109 ft 472 kts 147°
2026-05-05 22:13 20.12807 -65.00362 33104 ft 472 kts 147°
2026-05-05 22:14 20.08402 -64.96932 33104 ft 473 kts 147°
2026-05-05 22:14 20.03098 -64.92790 33115 ft 473 kts 147°
2026-05-05 22:15 19.96921 -64.87985 33112 ft 473 kts 147°
2026-05-05 22:15 19.92461 -64.84519 33109 ft 473 kts 147°
2026-05-05 22:16 19.87144 -64.80388 33105 ft 473 kts 147°
2026-05-05 22:16 19.81859 -64.76283 33111 ft 473 kts 147°
2026-05-05 22:17 19.76523 -64.72156 33109 ft 474 kts 147°
2026-05-05 22:17 19.71197 -64.68033 33106 ft 474 kts 147°
2026-05-05 22:18 19.65869 -64.63907 33109 ft 474 kts 147°
2026-05-05 22:18 19.60562 -64.59800 33115 ft 475 kts 146°
2026-05-05 22:19 19.55228 -64.55676 33112 ft 475 kts 146°
2026-05-05 22:19 19.49878 -64.51544 33108 ft 475 kts 146°
2026-05-05 22:20 19.44534 -64.47425 33108 ft 475 kts 146°
2026-05-05 22:20 19.39185 -64.43312 32803 ft 475 kts 146°
2026-05-05 22:20 19.36507 -64.41249 32559 ft 474 kts 146°
2026-05-05 22:21 19.33826 -64.39183 32317 ft 475 kts 146°
2026-05-05 22:21 19.31156 -64.37126 32070 ft 475 kts 146°
2026-05-05 22:21 19.28480 -64.35069 31824 ft 475 kts 146°
2026-05-05 22:21 19.25838 -64.33039 31598 ft 476 kts 146°
2026-05-05 22:22 19.23154 -64.30974 31359 ft 476 kts 146°
2026-05-05 22:22 19.20474 -64.28909 31124 ft 477 kts 146°
2026-05-05 22:22 19.17790 -64.26843 30891 ft 477 kts 146°
2026-05-05 22:22 19.15095 -64.24778 30657 ft 477 kts 146°
2026-05-05 22:23 19.12400 -64.22711 30020 ft 480 kts 146°
2026-05-05 22:23 19.09677 -64.20622 28960 ft 486 kts 146°
2026-05-05 22:23 19.06929 -64.18520 28014 ft 488 kts 146°
2026-05-05 22:23 19.04153 -64.16398 26926 ft 494 kts 146°
2026-05-05 22:24 19.01368 -64.14264 25946 ft 496 kts 145°
2026-05-05 22:24 18.98588 -64.12129 25323 ft 491 kts 145°
2026-05-05 22:24 18.95834 -64.10016 24611 ft 488 kts 146°
2026-05-05 22:24 18.93093 -64.07916 23918 ft 486 kts 145°
2026-05-05 22:25 18.90394 -64.05848 23150 ft 483 kts 145°
2026-05-05 22:25 18.87690 -64.03779 22474 ft 477 kts 146°
2026-05-05 22:25 18.85020 -64.01740 21800 ft 471 kts 146°
2026-05-05 22:25 18.82376 -63.99724 21124 ft 467 kts 145°
2026-05-05 22:26 18.79754 -63.97729 20460 ft 463 kts 145°
2026-05-05 22:26 18.77148 -63.95749 19808 ft 459 kts 145°
2026-05-05 22:26 18.74563 -63.93785 19146 ft 455 kts 145°
2026-05-05 22:26 18.72004 -63.91832 18533 ft 452 kts 145°
2026-05-05 22:27 18.69471 -63.89897 17875 ft 448 kts 145°
2026-05-05 22:27 18.66959 -63.87977 17293 ft 443 kts 144°
2026-05-05 22:27 18.64482 -63.86086 16733 ft 438 kts 145°
2026-05-05 22:27 18.62018 -63.84207 16176 ft 433 kts 144°
2026-05-05 22:28 18.59619 -63.82379 15634 ft 430 kts 145°
2026-05-05 22:28 18.57201 -63.80537 15079 ft 427 kts 144°
2026-05-05 22:28 18.54803 -63.78711 14517 ft 424 kts 144°
2026-05-05 22:28 18.52417 -63.76895 13948 ft 421 kts 144°
2026-05-05 22:29 18.50046 -63.75092 13319 ft 419 kts 144°
2026-05-05 22:29 18.47695 -63.73306 12731 ft 414 kts 144°
2026-05-05 22:29 18.45367 -63.71543 12141 ft 410 kts 144°
2026-05-05 22:29 18.43055 -63.69794 11534 ft 407 kts 144°
2026-05-05 22:30 18.40775 -63.68063 11078 ft 400 kts 144°
2026-05-05 22:30 18.38609 -63.66332 10958 ft 382 kts 138°
2026-05-05 22:30 18.36718 -63.64459 10845 ft 366 kts 136°
2026-05-05 22:30 18.34907 -63.62656 10722 ft 351 kts 137°
2026-05-05 22:31 18.33166 -63.60929 10603 ft 337 kts 137°
2026-05-05 22:31 18.31511 -63.59291 10490 ft 324 kts 137°
2026-05-05 22:31 18.29892 -63.57689 10374 ft 313 kts 137°
2026-05-05 22:31 18.28331 -63.56143 10228 ft 303 kts 137°
2026-05-05 22:32 18.26804 -63.54632 9888 ft 301 kts 137°
2026-05-05 22:32 18.25284 -63.53125 9565 ft 297 kts 136°
2026-05-05 22:32 18.23781 -63.51629 9172 ft 297 kts 136°
2026-05-05 22:32 18.22318 -63.50174 8905 ft 292 kts 136°
2026-05-05 22:33 18.20849 -63.48716 8427 ft 287 kts 136°
2026-05-05 22:33 18.19412 -63.47293 7957 ft 280 kts 136°
2026-05-05 22:33 18.18004 -63.45899 7588 ft 279 kts 136°
2026-05-05 22:33 18.16587 -63.44497 7260 ft 278 kts 136°
2026-05-05 22:34 18.15180 -63.43105 6908 ft 277 kts 136°
2026-05-05 22:34 18.13779 -63.41718 6580 ft 275 kts 136°
2026-05-05 22:34 18.12397 -63.40350 6247 ft 272 kts 136°
2026-05-05 22:34 18.11033 -63.39002 5815 ft 267 kts 136°
2026-05-05 22:35 18.09685 -63.37669 5443 ft 264 kts 136°
2026-05-05 22:35 18.08355 -63.36351 5065 ft 262 kts 136°
2026-05-05 22:35 18.07041 -63.35049 4702 ft 256 kts 136°
2026-05-05 22:35 18.05764 -63.33784 4356 ft 249 kts 136°
2026-05-05 22:36 18.04523 -63.32558 4037 ft 241 kts 136°
2026-05-05 22:36 18.03339 -63.31389 3754 ft 226 kts 136°
2026-05-05 22:36 18.02328 -63.30156 3456 ft 222 kts 121°
2026-05-05 22:36 18.01785 -63.28663 3149 ft 218 kts 102°
2026-05-05 22:37 18.01756 -63.27088 2868 ft 216 kts 84°
2026-05-05 22:37 18.01989 -63.25538 2587 ft 214 kts 84°
2026-05-05 22:37 18.02215 -63.24003 2302 ft 211 kts 84°
2026-05-05 22:37 18.02433 -63.22509 2047 ft 199 kts 83°
2026-05-05 22:38 18.02634 -63.21132 1773 ft 183 kts 84°
2026-05-05 22:38 18.02818 -63.19871 1553 ft 167 kts 83°
2026-05-05 22:38 18.02984 -63.18711 1340 ft 153 kts 83°
2026-05-05 22:38 18.03137 -63.17627 1130 ft 149 kts 84°
2026-05-05 22:39 18.03287 -63.16559 936 ft 146 kts 84°
2026-05-05 22:39 18.03414 -63.15657 774 ft 144 kts 83°
2026-05-05 22:39 18.03563 -63.14609 581 ft 144 kts 84°
2026-05-05 22:39 18.03738 -63.13572 405 ft 143 kts 82°
2026-05-05 22:40 18.03863 -63.12541 213 ft 143 kts 84°
2026-05-05 22:40 18.04003 -63.11502 27 ft 134 kts 83°
2026-05-05 22:40 18.04119 -63.10706 21 ft 73 kts 80°
2026-05-05 22:40 18.04172 -63.10343 20 ft 42 kts 81°
2026-05-05 22:41 18.04211 -63.10065 19 ft 34 kts 82°
2026-05-05 22:41 18.04279 -63.09894 20 ft 17 kts 51°
2026-05-05 22:41 18.04260 -63.09843 21 ft 9 kts 188°
2026-05-05 22:41 18.04233 -63.09920 20 ft 24 kts 262°
2026-05-05 22:42 18.04195 -63.10163 20 ft 35 kts 262°
2026-05-05 22:42 18.04160 -63.10413 20 ft 35 kts 262°
2026-05-05 22:42 18.04124 -63.10661 21 ft 34 kts 261°
2026-05-05 22:42 18.04093 -63.10901 21 ft 33 kts 263°
2026-05-05 22:43 18.04059 -63.11136 25 ft 29 kts 260°
2026-05-05 22:43 18.04052 -63.11264 22 ft 14 kts 298°
2026-05-05 22:43 18.04125 -63.11294 21 ft 9 kts 352°
2026-05-05 22:43 18.04189 -63.11304 21 ft 10 kts 352°
2026-05-05 22:44 18.04244 -63.11341 22 ft 9 kts 319°
2026-05-05 22:44 18.04295 -63.11357 21 ft 5 kts 352°
2026-05-05 22:44 18.04321 -63.11361 21 ft 2 kts 352°
2026-05-05 22:44 18.04328 -63.11362 21 ft 0 kts 352°
2026-05-05 22:47 18.04327 -63.11362 21 ft 0 kts 352°